Probability
1 1 0 0 0 0 0 0 0 0 0 0 0 0 0 0 0 0 0 0 0 0 1 2 3 3 3 2 1 0 0 0 0 0 0 0 0 0 0 0 0 0 1 3 6 7 9 8 7
1 0 0 0 0 0 0 0 0 0 0 0 0 0 0 0 0 0 0 0 0 0 1 2 3 3 2 1 0 0 0 0 0 0 0 0 0 0 0 0 0 0 1 3 5 7 8 7 7
0 0 0 0 0 0 0 0 0 0 0 0 0 0 0 0 0 0 0 0 0 0 1 2 2 2 1 0 0 0 0 0 0 0 0 0 0 0 0 0 1 2 2 3 4 6 7 7 6
0 0 0 0 0 0 0 0 0 0 0 0 0 0 0 0 0 0 0 0 0 0 0 1 1 1 0 0 0 0 0 0 0 0 0 0 0 0 0 0 1 2 4 4 4 6 6 6 6
0 0 0 0 0 0 0 0 0 0 0 0 0 0 0 0 0 0 0 0 0 0 0 0 1 0 0 0 0 0 0 0 0 0 0 0 0 0 0 0 0 2 4 5 4 5 6 6 6
0 0 0 0 0 0 0 0 0 0 0 0 0 0 0 0 0 0 0 0 0 1 0 0 0 0 0 0 0 0 0 0 0 0 0 0 0 0 0 0 1 2 3 4 4 4 5 6 6
0 0 0 0 0 0 0 0 0 0 0 0 0 0 0 0 0 0 0 0 0 0 0 0 0 0 0 0 0 0 0 0 0 0 0 0 0 0 0 0 1 2 3 3 3 3 4 5 6
0 0 0 0 0 0 0 0 0 0 0 0 0 0 0 0 0 0 0 0 0 0 0 0 0 0 0 0 0 0 0 0 0 0 0 0 0 0 0 0 1 2 3 3 3 3 3 4 5
0 0 0 0 0 0 0 0 0 0 0 0 0 0 0 0 0 0 0 0 0 0 0 0 0 0 0 0 0 0 0 0 0 0 0 0 0 0 0 0 0 1 2 2 3 3 3 3 4
0 0 0 0 0 0 0 0 0 0 0 0 0 0 0 0 0 0 0 0 0 0 0 0 0 0 0 0 0 0 0 0 0 0 0 0 0 0 0 0 0 0 1 1 1 2 2 2 2
0 0 0 0 0 0 0 0 0 0 0 0 0 0 0 0 1 1 0 0 0 0 0 0 0 0 0 0 0 0 0 0 0 0 0 0 0 0 0 0 0 0 0 0 0 1 1 1 1
0 0 0 0 0 0 0 0 0 0 0 0 0 1 1 1 2 2 1 0 0 0 0 0 0 0 0 0 0 0 0 0 0 0 0 0 0 0 0 0 0 0 0 0 0 0 0 0 0
0 0 0 0 0 0 0 0 0 0 0 0 0 1 2 2 2 2 1 0 0 0 0 0 0 0 0 0 0 0 0 1 1 0 0 0 0 0 0 0 0 0 0 0 0 0 0 0 0
0 0 0 0 0 0 0 0 0 0 0 0 0 1 1 1 1 1 1 0 0 0 0 0 0 0 0 0 0 0 0 1 2 1 0 0 0 0 0 0 0 0 0 0 0 0 1 1 0
0 0 0 0 0 0 0 0 0 0 0 0 0 0 0 0 0 0 0 0 0 0 0 0 0 0 0 0 0 0 0 1 2 1 0 0 0 0 0 1 1 0 1 1 1 1 2 2 1
0 0 0 0 0 0 0 0 0 0 0 0 0 0 0 0 0 0 0 1 1 0 0 0 0 0 0 0 0 0 0 0 1 1 0 0 0 0 1 2 2 2 2 2 2 2 2 3 2
0 0 0 0 0 0 0 0 0 0 0 0 0 0 0 0 0 0 0 1 2 1 1 1 1 0 1 1 1 1 0 0 0 0 0 0 0 1 2 3 3 3 3 3 2 2 2 2 1
0 0 0 0 0 0 0 0 0 0 0 0 0 0 0 0 0 0 0 2 3 2 1 1 1 1 1 3 3 3 1 1 0 0 0 0 0 1 2 3 3 3 3 3 3 2 2 1 0
0 0 0 0 0 0 0 0 0 0 0 0 0 0 0 0 0 0 0 1 2 3 3 2 2 2 2 4 5 5 4 3 1 1 0 0 0 0 1 2 3 3 3 3 3 3 2 1 0
0 0 0 0 0 0 0 0 0 0 0 0 0 0 0 0 0 0 0 0 2 3 3 3 3 3 4 4 5 6 6 5 4 3 1 0 0 0 0 1 2 3 3 3 3 2 1 0 0
0 0 0 0 0 0 0 0 0 0 0 0 1 1 1 1 0 0 0 0 2 4 4 4 4 4 6 6 5 5 6 6 6 5 3 1 0 0 0 0 1 2 3 2 2 1 0 0 0
0 0 0 0 0 0 0 0 0 0 0 0 1 2 2 2 1 0 0 0 2 4 5 4 4 5 8 9 8 6 6 6 6 5 4 2 1 0 0 0 1 2 1 1 1 0 0 0 0
0 0 0 0 0 0 0 0 0 0 0 0 1 2 3 2 1 0 0 1 2 4 4 5 5 6 9 11 10 7 5 5 6 5 4 3 2 1 1 1 1 1 1 0 0 0 0 0 0
0 0 0 0 0 0 0 0 0 0 0 0 0 1 2 1 1 1 1 2 3 5 5 5 5 6 10 12 11 8 5 4 5 5 4 3 3 3 2 2 1 0 0 0 0 0 0 0 0
0 0 0 0 0 0 0 0 0 0 0 0 0 0 1 1 2 2 2 3 4 6 7 6 5 5 8 10 10 8 5 4 4 5 4 3 3 3 3 2 1 0 0 0 0 0 0 0 0
0 0 0 0 0 0 0 0 0 0 0 0 0 0 0 2 3 3 2 2 3 5 7 7 6 6 7 8 9 8 6 4 4 4 4 4 4 4 3 2 1 0 0 0 0 0 0 0 0
0 0 0 0 0 0 0 0 0 0 0 0 0 0 0 1 2 3 2 1 1 3 5 7 8 8 9 9 9 9 8 7 6 6 6 6 6 5 3 2 1 1 0 0 1 2 1 1 1
0 0 0 0 0 0 0 0 0 0 0 0 0 0 0 0 1 3 3 1 1 2 3 5 8 10 12 12 10 11 11 9 9 8 7 7 6 5 3 2 2 2 1 1 2 3 3 2 2
0 0 0 0 0 0 0 0 0 0 0 0 0 0 0 0 1 2 3 3 2 2 2 3 5 9 12 12 11 11 11 10 10 9 8 7 6 5 3 3 3 3 3 3 5 5 4 2 1
0 0 0 0 0 0 0 0 0 0 0 0 0 0 0 0 0 1 3 3 3 2 1 1 3 6 9 11 10 10 10 9 9 10 9 8 7 5 4 4 4 4 4 5 7 6 4 1 0
Wind_Speed
3 2 2 3 3 2 6 5 4 4 4 5 5 4 5 6 6 6 4 3 4 4 5 7 6 6 7 7 7 8 8 9 8 8 8 8 8 8 7 7 7 7 7 7 6 6 6 7 7
1 1 3 3 2 4 6 5 6 6 6 5 5 4 5 6 6 6 4 4 4 5 5 7 7 7 7 7 8 8 9 9 9 9 9 9 8 8 7 7 7 7 7 7 7 7 7 7 8
1 2 2 1 1 4 6 6 7 6 4 3 3 4 5 5 5 4 4 5 5 6 5 8 6 7 7 8 9 9 8 9 9 9 9 9 9 9 8 7 7 7 7 7 7 7 7 8 8
2 2 1 2 7 7 6 6 6 6 5 3 3 6 5 5 4 5 6 5 6 6 6 8 6 8 8 8 8 9 8 8 8 9 9 9 9 9 8 8 7 7 8 8 9 9 9 9 9
2 1 3 6 7 6 5 5 4 4 4 4 4 6 7 5 5 6 6 6 6 7 6 8 8 8 8 8 7 8 8 8 8 8 8 8 9 9 9 9 8 8 10 9 9 10 10 10 10
1 1 3 6 7 6 5 4 4 5 6 5 5 6 6 5 6 6 6 6 6 6 6 7 8 7 7 7 7 8 7 8 8 8 8 8 8 9 10 10 11 11 11 10 10 10 10 10 10
0 1 4 6 7 5 4 3 3 4 5 4 3 5 6 5 5 6 6 6 5 5 5 5 7 7 7 7 7 8 8 8 8 8 8 8 8 9 9 10 10 11 11 11 11 10 10 10 10
1 2 5 5 6 5 4 4 3 3 4 4 1 3 5 7 7 7 7 6 5 5 5 4 5 4 5 6 7 7 7 7 7 8 8 7 7 8 8 9 10 10 11 11 11 11 11 10 10
2 2 4 5 4 5 5 5 4 3 4 4 3 4 6 10 9 8 7 6 5 4 4 4 4 4 4 5 6 5 6 6 4 6 6 3 4 6 6 11 10 10 11 11 11 10 10 8 9
1 2 4 3 3 4 5 4 4 5 5 5 6 6 7 9 9 8 7 7 6 6 5 4 3 3 4 4 3 3 4 4 3 4 4 3 4 5 6 9 9 10 10 10 10 8 6 3 4
2 2 4 4 3 3 3 3 3 4 3 4 5 7 9 9 8 7 6 6 5 5 5 4 3 3 3 3 3 2 2 3 3 4 5 3 3 3 3 3 4 5 5 5 5 3 4 4 4
3 3 2 3 4 3 2 2 3 2 1 2 3 6 8 9 8 7 6 6 5 5 4 4 3 3 4 3 3 2 2 2 2 3 4 3 2 3 3 3 4 3 3 4 4 3 4 5 5
4 3 3 3 3 3 3 3 2 2 2 2 4 5 7 7 7 6 5 5 5 5 5 4 4 3 3 3 2 2 2 2 3 2 2 3 2 3 3 3 3 4 3 3 3 3 5 4 5
3 3 3 2 3 3 3 2 2 2 3 4 5 5 6 6 6 6 6 6 6 6 6 5 5 4 3 3 3 2 2 2 2 2 2 3 2 2 3 3 3 3 3 3 3 4 3 3 4
4 4 4 3 3 3 3 3 2 2 3 4 4 4 5 5 5 5 5 5 6 5 6 6 5 4 4 3 3 2 2 2 2 2 2 2 2 2 3 2 3 2 3 3 3 4 3 3 3
5 5 4 3 2 3 5 3 1 2 4 3 3 3 4 4 5 5 5 5 5 5 6 6 5 5 5 4 3 2 2 2 1 1 1 2 2 2 2 2 2 2 2 2 2 2 2 2 2
6 4 3 3 2 3 4 3 1 2 3 3 3 3 4 4 5 5 5 5 5 5 5 6 6 6 5 4 3 2 2 2 1 1 1 1 1 1 2 1 1 2 1 1 1 1 1 2 2
4 4 4 3 1 3 3 3 2 2 3 4 4 4 4 4 4 5 5 5 5 5 5 5 6 6 5 4 3 2 2 2 1 1 1 1 1 1 1 1 2 2 1 1 1 2 1 1 1
3 5 4 2 2 3 4 3 3 2 3 4 4 4 4 3 3 3 4 4 5 5 5 5 6 5 5 4 4 3 3 3 2 2 2 2 2 1 1 1 1 1 1 1 1 1 1 1 0
6 7 5 2 2 4 4 4 3 3 3 4 4 4 3 3 2 2 3 4 5 5 5 5 5 6 6 4 4 3 3 3 2 2 2 2 2 2 1 2 2 2 1 1 1 1 0 1 1
6 7 5 4 3 5 5 5 4 3 3 2 3 3 3 2 2 2 2 3 4 5 5 4 5 6 6 6 4 3 3 3 3 3 2 2 2 2 2 2 2 2 2 2 1 1 1 1 1
5 3 6 6 7 5 6 6 3 3 3 2 2 2 2 1 1 1 1 1 2 3 4 5 5 5 5 6 5 5 4 4 4 3 3 3 3 3 3 3 2 2 2 2 2 2 1 2 1
3 3 6 7 8 8 7 8 3 3 3 2 1 1 1 1 1 1 0 0 1 2 2 4 5 5 5 6 6 6 5 4 3 3 4 4 3 3 3 3 3 3 2 2 2 2 2 2 2
3 4 5 7 8 9 6 8 3 2 2 1 1 1 1 1 1 1 2 1 1 1 2 2 4 4 5 5 6 7 7 6 5 5 4 4 3 3 4 4 3 3 3 3 3 3 3 3 2
6 6 5 6 7 5 2 6 3 1 0 1 1 0 1 1 0 1 2 2 2 1 1 2 3 4 5 5 6 6 7 7 6 6 5 5 3 4 4 4 4 3 3 3 3 3 3 3 3
5 7 6 5 5 3 4 6 2 2 1 1 1 1 1 0 1 1 1 1 1 0 1 2 3 4 4 5 5 5 6 5 4 5 4 5 4 4 4 4 4 4 4 4 3 3 3 3 3
5 5 5 7 7 7 5 3 3 4 3 2 2 1 1 0 1 1 1 1 1 0 1 2 3 3 4 5 5 4 4 5 4 5 5 4 4 4 4 5 5 4 4 4 4 3 4 4 4
4 3 5 6 6 8 6 7 4 5 4 3 2 1 0 0 1 1 1 1 1 1 1 2 2 3 4 4 4 3 4 4 4 4 4 4 4 4 5 5 5 4 4 5 4 4 4 4 4
4 5 6 6 6 8 7 3 1 2 3 3 2 1 1 1 1 1 1 1 1 1 1 1 2 3 3 3 4 4 4 4 4 4 4 4 4 4 5 5 5 5 5 5 4 5 5 5 5
6 6 7 7 7 8 8 4 1 2 2 2 2 2 2 1 1 1 1 1 1 1 1 1 1 2 2 3 4 4 4 5 4 4 4 4 4 4 5 5 5 5 5 5 5 5 5 5 6
Wind_Direction
225 228 224 238 219 116 82 80 86 93 76 64 64 63 63 44 26 61 75 87 76 80 89 104 78 74 71 70 74 81 82 81 79 78 78 76 74 74 79 82 84 89 92 90 89 90 88 84 82
295 250 233 246 231 117 91 92 92 77 92 99 84 75 73 68 55 82 104 97 97 91 88 81 77 76 73 70 73 79 81 78 76 76 77 76 76 76 75 75 78 83 86 85 83 85 88 85 82
208 264 273 247 76 79 100 99 97 94 107 111 96 63 49 64 77 97 103 117 112 99 94 86 78 77 75 70 70 73 80 79 75 74 73 72 72 72 70 70 74 83 89 85 86 86 90 86 82
237 225 221 110 92 74 96 111 110 118 109 95 108 93 81 58 74 98 113 123 112 103 99 91 81 78 74 70 68 69 75 79 76 72 69 67 67 68 65 63 63 80 90 85 84 84 86 85 83
248 255 136 111 95 94 101 101 120 116 106 107 106 98 94 80 91 108 120 123 113 105 100 96 85 77 70 67 69 70 71 73 74 72 69 66 66 64 62 59 65 84 92 89 86 85 84 82 80
219 225 147 120 111 111 111 114 120 103 106 109 110 107 95 106 120 122 124 121 111 110 108 107 103 86 73 67 66 68 70 70 69 70 69 68 67 66 63 61 69 81 85 86 85 83 82 80 76
217 126 121 124 127 125 112 110 113 103 107 97 106 107 114 129 129 135 132 125 118 117 117 115 117 115 107 85 70 69 71 70 68 68 67 67 70 68 66 67 69 77 81 83 82 81 79 77 73
330 147 136 140 143 125 120 121 97 83 88 97 123 111 126 141 142 141 137 133 127 127 125 119 109 105 105 102 87 75 73 71 72 72 69 71 81 80 75 75 70 72 77 80 81 81 79 77 73
243 178 147 142 145 131 136 139 119 114 125 125 113 84 105 134 145 147 146 145 138 135 132 127 120 111 104 94 102 105 98 81 96 99 87 87 80 78 82 65 68 69 73 76 78 80 81 85 85
208 157 125 118 135 140 145 145 142 159 148 140 131 120 126 145 156 158 158 157 153 151 145 135 126 118 111 99 105 95 95 96 83 80 85 74 69 65 67 81 72 71 75 82 77 81 95 88 85
116 118 120 131 134 147 149 152 167 176 156 149 148 146 149 159 165 168 166 160 155 152 147 148 139 125 117 117 105 96 92 92 79 72 79 72 73 81 76 84 94 86 84 80 90 94 63 63 62
131 117 139 144 150 168 168 170 177 189 136 108 133 148 159 170 172 176 174 168 162 158 160 154 153 142 134 123 113 106 98 94 84 72 72 75 67 64 69 69 69 66 66 68 65 59 61 57 60
150 136 142 152 168 184 187 191 188 198 197 143 142 157 170 176 177 177 176 174 172 169 168 170 165 154 140 126 119 117 99 89 94 78 67 74 74 74 74 76 73 65 65 71 66 63 59 53 51
125 140 151 168 178 184 188 186 203 219 191 176 175 177 181 183 188 182 181 187 186 182 175 172 175 168 157 144 140 125 117 112 93 92 86 83 82 81 80 81 76 70 63 61 70 70 65 58 55
158 162 161 170 186 182 196 191 208 211 195 186 186 184 187 194 195 198 192 194 192 188 184 176 179 179 170 160 146 134 133 127 112 105 105 94 85 90 92 85 82 75 73 73 70 76 67 68 68
183 193 183 159 186 203 227 216 163 169 183 195 199 192 196 206 214 208 201 202 197 192 189 178 181 186 177 169 161 155 144 138 133 122 109 108 107 98 95 92 85 76 74 71 75 72 83 81 65
197 200 192 178 186 222 230 240 226 178 202 208 211 208 206 208 219 216 211 207 203 199 193 183 185 189 180 176 171 170 158 161 161 150 147 134 121 127 116 101 95 91 82 80 85 79 63 77 71
199 212 220 221 168 225 227 243 244 232 234 230 222 220 217 211 221 213 207 207 204 202 198 194 186 188 179 179 181 173 175 175 176 177 171 157 187 175 141 149 138 119 111 99 102 108 91 55 58
240 235 239 255 246 247 240 251 252 237 236 239 232 226 222 220 215 204 199 203 199 198 199 192 195 187 184 184 192 188 187 187 180 188 187 182 199 196 150 176 146 135 127 121 125 95 102 73 2
233 239 246 242 216 255 250 260 257 247 233 240 247 241 235 235 219 196 200 201 205 200 201 194 196 192 191 192 197 196 192 195 181 184 189 189 195 201 185 186 167 163 149 159 128 105 339 32 314
241 252 257 265 261 235 251 250 227 208 211 221 239 244 245 244 250 221 206 210 208 207 203 198 197 195 194 192 193 188 183 190 181 183 188 201 207 208 211 208 198 194 196 190 197 195 232 287 299
245 260 256 251 252 248 250 268 224 201 198 214 231 230 242 269 280 302 261 217 214 211 204 202 197 197 192 189 192 195 198 196 197 191 182 194 204 212 215 217 213 212 223 210 212 209 227 255 274
267 272 252 253 259 259 246 258 232 203 215 210 218 226 262 293 310 358 3 225 207 203 200 205 199 197 191 190 188 199 205 207 198 194 191 198 198 212 216 218 219 217 223 229 228 234 241 244 274
217 225 226 233 246 248 249 253 246 209 231 203 195 49 21 22 29 48 61 67 75 132 174 192 202 201 197 195 195 203 206 207 203 203 202 203 201 210 213 214 219 222 226 230 231 232 235 251 262
224 247 240 228 226 241 227 250 247 109 110 246 253 272 37 38 46 39 46 61 67 99 188 196 196 203 202 203 207 209 211 211 212 212 211 211 210 213 214 215 221 227 234 237 235 236 239 237 242
234 252 266 273 271 269 228 242 197 139 197 225 197 163 129 38 19 38 37 45 58 96 204 209 198 203 202 206 211 212 212 214 218 220 220 217 217 219 219 221 225 231 234 232 228 235 233 239 239
231 236 275 278 275 268 238 220 210 198 212 206 173 135 111 33 15 12 7 9 27 12 260 234 209 201 204 206 207 203 211 216 220 222 219 220 221 221 216 221 223 224 227 230 226 226 227 234 241
276 242 233 250 265 262 254 246 228 197 210 208 196 180 258 343 19 21 7 345 342 328 276 235 211 204 202 205 205 198 207 211 212 216 220 220 222 221 219 217 218 220 223 224 225 228 233 232 228
216 220 237 251 264 273 273 257 18 224 208 224 227 225 245 273 336 8 350 329 325 340 286 230 216 214 206 206 206 202 205 210 213 212 220 221 220 218 220 220 218 219 221 222 221 228 226 234 233
262 250 247 256 252 257 272 272 98 227 236 247 253 263 263 259 269 288 313 310 312 345 321 272 229 220 219 219 210 201 205 205 212 213 219 222 219 221 222 219 221 222 223 223 227 230 230 236 241